カタログに戻る

THOR ABLESTAR DEB

運用中LEO
NORAD 20174·DEBRIS·🇺🇸 United States

打ち上げ Jun 29, 1961 から Cape Canaveral Space Force Station

Loading…

次のパス (今後24時間)

TLE

最新Source: Space-Track

元期: Sep 13, 2026, 13:06 UTC

1 20174U 61015MK  26256.54624499  .00000191  00000-0  29365-3 0  9990
2 20174  67.0587  90.0531 0479257  70.6677 294.5540 13.28899562693532

AllMySatでTHOR ABLESTAR DEBをリアルタイム追跡

Download on the App Store